Location: Buckhorn Peak
(37.6641°N, 120.1241°W)
Time: 09:09:28
(UTC+00:00)

ACS3 Solar Sail - Visible Passes

Search period start: 12 October 2024 00:00
Search period end: 22 October 2024 00:00
Orbit: 960 x 1033 km, 97.5° (Epoch: 12 October)

Date Brightness Start Highest point End Pass type
(mag) Time Alt. Az. Time Alt. Az. Time Alt. Az.
12 Oct 2.9 02:44:41 22° ENE 02:45:40 23° ENE 02:50:26 10° NNE visible
12 Oct 2.5 04:29:48 52° WNW 04:29:48 52° WNW 04:35:18 10° NNW visible
13 Oct 2.2 03:16:16 40° ENE 03:16:27 40° ENE 03:22:18 10° N visible
13 Oct 3.5 05:01:23 29° WNW 05:01:23 29° WNW 05:05:50 10° NW visible
14 Oct 3.6 02:03:27 10° ENE 02:04:38 11° ENE 02:05:48 10° NE visible
14 Oct 1.8 03:47:51 69° NE 03:47:51 69° NE 03:53:42 10° N visible
14 Oct 4.3 05:32:58 15° WNW 05:32:58 15° WNW 05:35:30 10° NW visible
15 Oct 3.1 02:34:19 19° ENE 02:35:11 20° ENE 02:39:32 10° NNE visible
15 Oct 2.3 04:19:26 57° WNW 04:19:26 57° WNW 04:24:45 10° NNW visible
16 Oct 2.4 03:05:52 35° ENE 03:05:54 35° ENE 03:11:30 10° N visible
16 Oct 3.3 04:50:59 32° WNW 04:50:59 32° WNW 04:55:23 10° NNW visible
17 Oct 1.9 03:37:25 59° NE 03:37:25 59° NE 03:42:59 10° N visible
17 Oct 4.2 05:22:32 17° WNW 05:22:32 17° WNW 05:25:19 10° NW visible
18 Oct 3.2 02:23:51 17° ENE 02:24:37 17° ENE 02:28:27 10° NNE visible
18 Oct 2.2 04:08:58 59° NW 04:08:58 59° NW 04:14:06 10° NNW visible
19 Oct 2.6 02:55:23 30° ENE 02:55:23 30° ENE 03:00:36 10° N visible
19 Oct 3.2 04:40:30 35° WNW 04:40:30 35° WNW 04:44:49 10° NNW visible
20 Oct 2.1 03:26:54 50° NE 03:26:54 50° NE 03:32:09 10° N visible
20 Oct 4.0 05:12:01 20° WNW 05:12:01 20° WNW 05:14:57 10° NW visible
21 Oct 3.3 02:13:18 14° ENE 02:13:59 14° ENE 02:17:08 10° NNE visible
21 Oct 2.2 03:58:25 57° NNW 03:58:25 57° NNW 04:03:19 10° NNW visible
